Dewpoint
54 55 55 56 56 56 56 56 57 58 58 59 59 60 59 59 58 49 35 41 44 62 60 39 38 39 29 23 21 13 10 9 8 11 14 14 11 15 17 17 24 28 30 32 33
54 54 54 55 55 56 56 56 56 57 58 59 59 59 59 59 48 36 52 57 55 63 34 36 36 34 23 19 17 9 10 6 11 15 14 15 15 17 19 28 29 28 32 35 36
54 55 55 54 55 55 55 55 56 56 58 58 58 59 58 57 42 35 60 59 57 60 39 35 35 27 22 20 13 10 7 9 12 22 13 15 13 14 26 30 32 35 40 44 45
54 54 54 53 54 55 55 55 56 56 57 58 58 58 58 49 30 32 63 62 62 52 39 37 35 24 24 22 17 15 15 15 16 17 15 13 15 20 31 31 35 36 43 46 47
54 54 54 54 54 54 55 55 55 56 56 57 58 58 46 38 31 44 65 62 49 36 33 32 25 24 23 21 22 20 17 17 19 19 18 22 20 27 31 33 36 39 44 46 48
54 54 54 54 54 55 55 55 56 56 56 57 58 58 49 35 34 39 50 37 37 33 27 26 26 24 23 22 19 22 24 21 22 20 23 24 22 24 32 33 36 40 42 45 47
53 53 53 53 54 55 55 55 55 56 56 58 58 50 40 37 28 36 37 30 26 25 24 28 27 26 28 26 24 23 19 20 21 22 25 25 22 28 33 33 36 39 42 45 48
53 52 52 53 53 55 55 55 55 56 59 59 58 47 40 33 29 26 29 28 26 25 26 28 27 27 27 26 25 21 20 17 20 22 26 24 22 32 32 33 34 37 39 45 48
52 51 52 52 53 53 55 55 56 58 60 58 51 45 38 38 26 27 26 25 27 25 27 24 27 28 29 23 24 25 21 19 21 22 25 24 26 33 33 34 33 35 39 44 48
51 51 51 52 52 52 53 55 56 56 55 47 42 38 38 28 26 25 25 26 29 28 28 28 28 28 28 25 22 20 21 21 23 24 23 23 22 34 34 34 33 33 38 42 43
51 51 50 51 51 51 50 46 41 43 44 33 30 37 34 29 29 25 25 24 27 30 28 31 23 25 23 21 19 19 18 19 22 24 22 22 22 23 34 31 31 33 37 40 42
51 51 50 50 50 50 49 41 37 30 30 37 35 34 32 27 28 28 23 24 27 25 27 22 23 25 20 21 20 20 20 18 22 23 21 23 22 23 24 33 33 37 40 40 40
50 50 50 50 48 50 39 42 37 30 32 29 30 32 23 24 26 30 23 22 22 21 20 19 22 24 21 20 19 21 23 24 21 19 19 18 19 20 25 35 37 39 38 38 39
50 50 50 49 45 37 34 37 31 38 32 27 27 22 23 23 26 26 25 25 22 21 19 18 18 18 22 23 20 19 22 23 26 20 18 22 18 20 34 44 45 44 44 42 40
49 49 49 47 41 38 34 28 32 39 30 31 23 22 21 21 27 27 27 28 21 23 23 18 21 20 20 22 18 15 20 18 20 17 21 23 24 31 41 42 44 45 45 44 37
49 49 48 42 43 42 42 39 37 32 29 30 22 22 21 24 26 27 30 27 23 21 19 18 22 22 20 18 19 17 18 19 24 23 26 26 27 33 36 42 43 44 44 44 36
49 47 46 39 38 35 35 37 32 28 29 29 24 21 21 22 21 26 27 25 23 23 26 22 16 15 18 17 18 19 26 29 28 26 26 27 27 33 39 42 42 41 38 36 36
47 46 46 42 41 38 40 37 30 30 29 34 29 22 22 19 21 22 25 24 27 24 20 20 23 17 19 17 21 23 23 32 18 24 25 27 32 34 40 39 38 38 36 36 37
45 41 39 41 42 40 42 35 31 31 29 32 28 24 21 20 21 25 27 24 21 24 22 27 24 19 18 15 20 30 31 38 30 33 25 25 34 38 39 39 39 38 37 36 36
40 41 38 40 43 44 40 36 34 33 31 31 28 29 24 21 21 23 26 29 28 27 26 32 29 22 16 17 14 22 29 28 38 24 25 26 32 36 37 39 39 38 37 37 38
44 40 41 43 50 44 37 36 33 33 33 31 29 29 27 27 27 24 27 24 31 26 24 23 29 25 20 18 15 23 25 25 34 37 29 26 28 36 38 39 39 38 39 37 35
40 35 40 41 44 44 38 38 37 34 36 33 34 31 31 32 30 26 27 32 30 28 23 30 32 30 28 27 21 18 22 29 35 29 35 34 33 37 40 38 39 39 42 36 34
35 37 42 46 39 39 40 38 36 34 35 35 32 32 32 30 29 30 29 34 28 29 34 34 30 24 19 20 26 25 26 22 28 33 30 31 33 34 40 40 39 39 38 33 35
37 35 42 46 43 40 40 38 37 38 38 35 34 33 32 32 30 32 27 32 28 33 48 41 32 30 32 32 26 28 32 30 26 31 32 34 33 38 40 38 38 37 36 36 38
41 38 39 35 31 34 36 38 37 40 43 42 37 33 33 32 29 28 29 31 33 44 36 33 28 30 28 27 26 25 23 20 19 24 28 29 31 38 39 38 39 37 38 38 38
41 38 37 33 36 35 36 38 36 41 40 41 42 40 34 35 34 34 36 33 34 35 36 36 31 33 32 32 28 24 23 24 22 19 20 24 34 37 39 40 38 38 38 38 41
40 40 39 35 32 32 37 33 32 32 41 40 41 40 38 38 39 39 40 38 36 37 37 37 35 34 32 33 32 29 28 28 24 23 27 28 34 37 37 37 38 38 39 42 42
Lifted_Index
14 14 14 14 14 14 13 13 13 12 12 11 11 10 10 10 9 8 8 9 10 9 8 7 7 7 8 8 8 7 4 3 3 2 2 3 4 4 4 4 5 5 5 5 5
14 14 14 14 14 14 14 13 13 12 12 11 11 11 11 10 8 7 8 9 10 9 8 7 7 7 8 8 7 6 4 4 4 3 3 3 4 4 4 4 5 5 6 5 4
14 14 14 13 13 14 14 13 13 13 12 12 11 11 11 10 7 7 8 9 10 9 8 8 7 7 7 7 7 6 5 5 5 4 4 4 4 4 5 5 5 5 5 4 4
14 14 14 13 13 13 14 13 13 13 12 12 12 11 11 9 7 7 8 9 9 8 8 7 7 7 7 6 6 5 5 5 5 5 4 4 4 4 5 5 4 4 4 4 3
13 13 14 13 13 13 13 13 13 12 12 12 12 11 10 8 7 7 8 9 8 8 8 7 7 7 6 6 6 5 5 5 5 5 5 5 5 5 5 5 4 4 4 3 3
11 12 13 13 13 13 13 12 12 11 11 11 11 10 8 7 7 8 8 8 8 8 8 7 7 7 6 6 6 5 5 5 6 6 6 5 5 5 5 4 4 4 3 3 3
10 11 13 13 13 13 12 12 11 11 11 10 10 9 8 7 7 8 7 7 8 8 8 7 7 7 6 6 5 5 5 5 5 6 5 5 5 5 5 4 4 4 4 4 4
10 10 12 13 13 12 12 11 10 10 10 10 9 8 7 7 7 7 7 7 8 8 8 8 7 7 6 5 5 4 4 4 5 5 5 5 4 4 4 4 4 4 3 3 3
10 10 11 12 12 12 11 10 10 10 9 9 9 7 6 6 7 7 7 7 7 8 8 7 7 6 6 5 5 4 3 3 3 4 5 4 4 3 3 3 3 3 3 2 3
11 10 10 11 12 11 10 9 9 8 8 8 7 6 6 6 7 7 7 7 7 7 7 6 6 6 5 5 5 4 2 2 2 3 4 4 3 3 2 2 2 2 2 2 2
11 10 10 10 11 10 9 8 7 6 6 6 6 5 5 6 7 7 7 7 7 6 6 6 6 6 6 5 5 4 3 2 2 3 4 4 3 3 2 2 2 2 1 1 1
10 10 10 9 9 9 7 6 6 6 6 6 5 5 5 6 6 7 7 7 7 6 6 6 6 6 6 5 5 4 4 3 3 3 3 3 3 3 2 1 1 1 1 0 -0
10 10 10 9 8 8 6 6 6 6 6 6 5 5 6 6 6 6 6 7 6 6 6 6 6 6 6 5 5 5 4 4 3 3 3 3 3 2 1 1 0 0 -0 -0 -0
10 10 10 9 8 7 6 6 6 6 5 5 5 5 6 6 6 6 6 6 6 6 6 6 6 6 6 6 5 5 5 4 4 3 3 3 2 2 1 0 0 -0 -0 -0 -0
10 10 9 9 8 7 6 6 6 5 4 4 5 5 5 5 5 5 6 6 6 6 6 6 6 6 6 6 6 5 5 4 4 3 3 2 2 1 0 0 -0 -0 -0 -0 -0
10 10 9 8 8 6 6 6 5 4 2 3 4 4 5 5 5 5 5 5 5 5 5 5 6 6 6 6 6 6 5 4 3 3 2 2 1 -0 -0 -0 -0 -0 -0 -0 0
9 9 9 8 7 6 5 5 4 3 1 2 3 3 4 4 4 4 4 4 4 4 4 5 5 6 6 6 5 5 4 3 2 1 1 1 -0 -1 -0 -0 -0 -0 -0 0 0
9 9 8 7 7 6 5 5 4 2 1 1 1 2 3 3 3 3 3 4 4 4 4 4 4 5 5 5 5 4 3 2 1 1 1 1 -0 -1 -0 0 0 0 0 0 0
8 8 7 6 6 6 5 4 4 2 1 1 1 2 2 2 2 2 3 3 3 4 4 3 3 4 5 5 4 3 3 2 1 1 1 0 -0 -0 -0 0 0 0 0 0 0
8 6 5 5 5 5 5 4 3 2 1 1 1 2 2 2 1 1 2 2 3 3 3 3 3 3 4 4 4 3 2 2 1 1 1 1 0 0 0 0 0 -0 -0 0 0
6 5 3 3 3 3 4 3 3 2 1 1 1 2 2 1 1 1 1 2 2 3 3 3 3 3 3 3 3 3 2 2 1 1 1 1 1 0 0 0 0 0 -0 0 1
5 4 2 2 2 2 2 2 2 1 1 1 1 2 2 1 1 1 1 1 2 3 3 3 3 3 2 2 3 2 2 2 1 1 1 1 1 0 0 0 0 0 0 1 1
4 3 3 2 2 1 1 1 1 1 0 0 1 2 1 1 1 1 1 1 2 2 3 3 3 2 2 2 2 2 2 1 2 1 1 1 1 0 -0 0 0 1 1 1 1
4 3 3 2 2 1 1 1 1 0 -0 -0 0 1 1 1 1 1 1 1 2 2 3 3 3 3 2 2 2 2 1 1 2 2 1 1 0 -0 0 1 1 1 1 1 1
4 4 3 3 2 2 1 1 1 -0 -1 -0 0 1 1 1 1 1 1 1 1 2 3 3 3 3 2 2 2 2 2 1 2 2 1 1 0 -0 0 1 1 2 2 2 2
5 5 4 3 2 2 1 1 1 0 -0 -0 0 0 0 0 0 1 1 1 1 2 2 3 3 3 2 2 2 2 2 1 1 1 1 0 -0 0 0 1 2 2 2 2 2
5 5 5 4 3 2 1 1 1 1 0 0 0 0 0 0 0 1 1 1 1 1 2 2 2 2 2 1 1 1 1 1 1 0 0 0 0 0 1 1 2 2 2 2 2